Regional Weather Roundup
Issued by NWS

Home | Current Version | Previous Version | Graphics & Text | Print | Product List | Glossary On
Versions: 1 2 3 4 5 6 7 8 9 10 11 12 13 14 15 16 17 18 19 20 21 22 23 24 25 26 27 28
000
ASUS45 KTFX 172210
RWRMT
MONTANA REGIONAL WEATHER ROUNDUP
NATIONAL WEATHER SERVICE GREAT FALLS MT
300 PM MST TUE JAN 17 2017

NOTE: "FAIR" INDICATES FEW OR NO CLOUDS BELOW 12000 FEET WITH NO
SIGNIFICANT WEATHER AND/OR OBSTRUCTIONS TO VISIBILITY.

MTZ001>007-043-172300-
WEST OF THE DIVIDE

CITY           SKY/WX    TMP DP  RH WIND       PRES   REMARKS
KALISPELL      CLOUDY    19  15  84 CALM      29.99F
MISSOULA       SUNNY     17   8  67 CALM      30.02F
BUTTE          CLOUDY    25  11  55 VRB3      29.96F
MULLAN PASS    CLOUDY    30  20  66 S8G18     29.89F WCI  22
ANACONDA         N/A     43  12  28 SE18G24   29.92F
DEER LODGE       N/A     19  10  68 N5        29.96F
EUREKA           N/A     28  21  74 CALM      29.94S
HAMILTON         N/A     18   7  62 CALM      29.96F
PLAINS           N/A     24  10  55 MISG      30.00
RONAN            N/A     13   8  80 MISG      30.00S
$$

MTZ008-052>055-172300-
SOUTHWEST MONTANA

CITY           SKY/WX    TMP DP  RH WIND       PRES   REMARKS
BOZEMAN        CLOUDY    21  13  71 E6        30.01R WCI  13
DILLON         CLOUDY    34  16  47 SW18      29.99F WCI  23
W YELLOWSTONE  CLOUDY    18   9  68 NE3       30.13F
ENNIS          SUNNY     30  18  59 S20G26    30.05R WCI  18
$$

MTZ009-010-012-014-046-048-049-054-172300-
EAST SLOPES AND CENTRAL MONTANA

CITY           SKY/WX    TMP DP  RH WIND       PRES   REMARKS
CUT BANK       MOSUNNY   45  29  53 SW25G38   29.71F
GREAT FALLS    CLOUDY    39  24  55 S16       29.79R WCI  30
MALMSTROM AFB  CLOUDY    42  29  59 SW23      29.78F
HELENA         CLOUDY    22   8  55 CALM      29.97F
AUGUSTA          N/A     40  28  62 S20       29.78S
BOWMANS CRNR     N/A     33  19  55 S30       29.78F WCI  19
CHOTEAU          N/A     45  28  53 S15       29.78R
CONRAD           N/A     39  35  85 CALM      29.79F
FAIRFIELD        N/A     38  23  54 SW29G36   29.75F WCI  26
POWER            N/A     39  26  58 S16       29.76S WCI  30
RAYNESFORD       N/A     55  30  38 SW14G20   29.80F
ULM              N/A     41  23  49 MISG      29.82F
$$

MTZ011-013-016-021-045-047-050-051-172300-
NORTH CENTRAL MONTANA

CITY           SKY/WX    TMP DP  RH WIND       PRES   REMARKS
HAVRE          SUNNY     41  28  60 SW13      29.72F
LEWISTOWN      CLOUDY    44  29  55 SW18      29.82S
N BAR RANCH      N/A     54  30  40 W17G26    29.80F
CHINOOK          N/A     46  28  49 W16G23    29.67S
DENTON           N/A     44  31  60 SW18G30   29.75S
FORT BENTON      N/A     52  28  40 MISG      29.76F
GEYSER           N/A     47  29  51 W28G35    29.76S
GRASS RANGE      N/A     49  29  44 W18G25    29.74F
JUDITH GAP       N/A     41  29  63 W9        29.83R
ROY              N/A     48  33  54 MISG      29.72R
STANFORD         N/A     46  32  58 SW10      29.80F
WINIFRED         N/A     46  30  54 SW16      29.77S
$$

MTZ017>020-022>027-061-062-172300-
NORTHEAST MONTANA

CITY           SKY/WX    TMP DP  RH WIND       PRES   REMARKS
GLASGOW        CLOUDY    31  23  72 E7        29.70S WCI  24
JORDAN           N/A     44  29  55 W8        29.74R
SIDNEY         CLOUDY    28  20  71 SW18      29.73R WCI  15
WOLF POINT     CLOUDY    32  19  58 W9        29.72S WCI  24
PLENTYWOOD       N/A     43  27  52 SW6       29.65R
POPLAR           N/A     30  19  64 W3        29.72R
SCOBEY           N/A     38  23  55 S6        29.66
$$

MTZ028>42-056>058-172300-
SOUTHCENTRAL AND SOUTHEAST MONTANA

CITY           SKY/WX    TMP DP  RH WIND       PRES   REMARKS
BAKER          CLOUDY    33  19  56 W23       29.80S WCI  21
BILLINGS       CLOUDY    36  17  46 SW24G31   29.86R WCI  24
LIVINGSTON     CLOUDY    43  18  36 SW29G39   29.92R
MILES CITY     CLOUDY    29  18  63 S9        29.82R WCI  20
BIG TIMBER     SUNNY     45  19  36 W31       29.88S
EKALAKA          N/A     37  13  37 S13       29.82  WCI  29
FORSYTH          N/A     43  21  42 SW7       29.81R
HARLOWTON        N/A     44  21  40 NW21G28   29.86R
LAUREL           N/A     36  15  42 S22       29.88R WCI  25
$$

REGIONAL REPORTS...DAKOTAS

CITY           SKY/WX    TMP DP  RH WIND       PRES   REMARKS
WILLISTON      CLOUDY    29  20  69 SW15      29.70S WCI  18
MINOT          CLOUDY    33  20  58 SW21      29.65S WCI  21
DICKINSON      CLOUDY    30  21  69 SW14      29.74S WCI  19
BEACH            N/A     32  19  59 SW22G28   29.78F WCI  19
CROSBY           N/A     28  25  86 S17G23    29.64R WCI  16
TIOGA            N/A     27  23  86 SW17      29.68S WCI  14
WATFORD CITY     N/A     32  23  69 SW15      29.72S WCI  22
BISMARCK       CLOUDY    33  18  53 SW3       29.80F
GRAND FORKS    CLOUDY    22  16  78 S16       29.80F WCI   8
FARGO          CLOUDY    26  20  77 S16       29.88F WCI  14
BUFFALO SD       N/A     34  23  64 W14       29.76S WCI  25
RAPID CITY     CLOUDY    33  22  63 CALM      29.87S
$$

REGIONAL REPORTS...WYOMING/IDAHO/WASHINGTON

CITY           SKY/WX    TMP DP  RH WIND       PRES   REMARKS
GILLETTE       SUNNY     44  23  43 SW12      29.89R
SHERIDAN       CLOUDY    32  18  56 S5        29.88S
BUFFALO WY     CLOUDY    43  18  36 CALM      29.91R
CODY           CLOUDY    32  13  45 CALM      29.95F
YELLOWSTONE LA   N/A     15   7  70 CALM      30.12F
IDAHO FALLS    CLOUDY    10   5  80 N7        30.23F WCI  -1
SALMON         CLOUDY     0  -8  71 CALM      30.28F
BOISE          SUNNY     14   6  70 SW7       30.24F HAZE    WCI   4
SPOKANE        PTSUNNY   23  19  85 E5        29.94F
$$

REGIONAL REPORTS...ALBERTA

CITY           SKY/WX    TMP DP  RH WIND       PRES   REMARKS
EDMONTON       CLOUDY    45  28  53 S5        29.33F
CALGARY        PTSUNNY   48  32  53 SE7       29.48S
LETHBRIDGE     PTSUNNY   43  30  61 W23       29.65R
MEDICINE HAT   PTSUNNY   45  30  57 SW28G39   29.52R
WATERTON GATE    N/A     50  30  46 SW26G41     N/A
CARDSTON         N/A     48  27  43 SE7         N/A
MILK RIVER       N/A     48  27  43 SW15G26     N/A
$$

REGIONAL REPORTS...SASKATCHEWAN

CITY           SKY/WX    TMP DP  RH WIND       PRES   REMARKS
SWIFT CURRENT  SUNNY     41  34  75 W12       29.55R
REGINA         MOCLDY    39  32  75 W12G18    29.52R WCI  32
SASKATOON      MOCLDY    36  30  80 SW7       29.46R WCI  30
VAL MARIE        N/A     39  28  65 W23G29      N/A  WCI  29
ASSINIBOIA       N/A     39  30  70 S7          N/A
$$




USA.gov is the U.S. government's official web portal to all federal, state and local government web resources and services.